Home > Weather > East London > Past weeks

Flag for South Africa Weather for the Past 2 Weeks in East London, South Africa

Now
52 °F

Clear.


Feels Like: 51 °F
Forecast: 59 / 62 °F
Wind: 3 mph from Northwest

Location: East London

Current Time: May 6, 2016 at 6:20:38 AM

Latest Report: May 6, 2016 at 5:00 AM


Visibility: 10 mi

Pressure: 30.07 "Hg

Humidity: 88%

Dew Point: 48 °F

Location of East LondonLocation

Historic Weather in East London — Graph

°F

East London Temperature Yesterday

Maximum temperature yesterday: 73 °F (at 2:00 PM)
Minimum temperature yesterday: 50 °F (at 6:00 AM)
Average temperature yesterday: 64 °F

High & Low Weather Summary for the Past Weeks

 TemperatureHumidityPressure
High81 °F (Apr 22, 1:00 PM)94% (Apr 21, 8:00 AM)30.36 "Hg (Apr 21, 8:00 AM)
Low50 °F (May 1, 5:00 AM)32% (Apr 29, 8:00 AM)29.59 "Hg (Apr 22, 8:00 PM)
Average65 °F66%30.03 "Hg
* Reported Apr 21 5:00 AM — May 6 5:00 AM, East London, Weather by CustomWeather, © 2016

Note: Actual official high and low records may vary slightly from our data, if they occured in-between our weather recording intervals... More about our weather records

Advertising

East London Weather History for the Previous 24 Hours

Scroll right to see more
 ConditionsComfort  
Time TempWeatherWind HumidityBarometerVisibility
5:00 AM
Fri, May 6
52 °FClear.3 mph88%30.07 "Hg10 mi
9:00 PM
Thu, May 5
61 °FClear.9 mph77%30.12 "Hg10 mi
8:00 PM63 °FClear.7 mph73%30.12 "Hg10 mi
7:00 PM61 °FClear.6 mph83%30.12 "Hg10 mi
6:00 PM64 °FClear.6 mph73%30.12 "Hg10 mi
5:00 PM68 °FClear.8 mph69%30.12 "Hg10 mi
4:00 PM70 °FSunny.12 mph64%30.12 "Hg10 mi
3:00 PM72 °FPassing clouds.10 mph53%30.12 "HgN/A
2:00 PM73 °FSunny.9 mph50%30.15 "Hg10 mi
1:00 PM72 °FSunny.10 mph50%30.15 "Hg10 mi
12:00 PM72 °FPassing clouds.8 mph57%30.18 "HgN/A
11:00 AM72 °FPassing clouds.5 mph47%30.21 "HgN/A
10:00 AM70 °FPassing clouds.5 mph53%30.21 "HgN/A
9:52 AM70 °FPassing clouds.5 mph53%30.21 "HgN/A
9:00 AM61 °FSunny.8 mph72%30.21 "Hg10 mi
8:51 AM61 °FSunny.8 mph72%30.21 "Hg10 mi
8:00 AM55 °FSunny.6 mph82%30.18 "Hg10 mi
7:00 AM52 °FSunny.7 mph88%30.18 "Hg10 mi
6:00 AM50 °FSunny.3 mph88%30.18 "Hg10 mi
Weather by CustomWeather, © 2016

See weather overviewHow to use our weather pages